Вернуться в каталог

FENGYUN 1C DEB

АктивенSSO
NORAD 29801·DEBRIS·🇨🇳 China

Запущен May 10, 1999 с Taiyuan Satellite Launch Center

Loading…

Ближайшие Пролёты (ближайшие 24 часа)

TLE

СвежийSource: Space-Track

Эпоха: Sep 14, 2026, 05:56 UTC

1 29801U 99025CT  26257.24748604  .00000190  00000-0  76601-4 0  9996
2 29801  98.7766 168.6459 0103480 173.6774 338.3266 14.36137611 28942

Отслеживайте FENGYUN 1C DEB в реальном времени с AllMySat

Download on the App Store